| time (UTC) | temp C | wind direction | speed KPH | gust KPH | rain 1hr cm | rain 24hr cm | rain mn cm | humidity % | barometer mb |
| 20260506034505 | 20 | 36 | 9.7 | 19.3 | 0.00 | 0.00 | 0.00 | 76 | 1026.1 |
| 20260506032007 | 20 | 43 | 12.9 | 22.5 | 0.00 | 0.00 | 0.00 | 76 | 1026.1 |
| 20260506031505 | 20 | 24 | 11.3 | 22.5 | 0.00 | 0.00 | 0.00 | 75 | 1026.1 |
| 20260506030505 | 20 | 12 | 8.0 | 22.5 | 0.00 | 0.00 | 0.00 | 75 | 1026.1 |
| 20260506030007 | 21 | 30 | 11.3 | 22.5 | 0.00 | 0.00 | 0.00 | 76 | 1026.2 |
| 20260506025505 | 21 | 50 | 8.0 | 19.3 | 0.00 | 0.00 | 0.00 | 75 | 1026.2 |
| 20260506024507 | 20 | 61 | 8.0 | 19.3 | 0.00 | 0.00 | 0.00 | 76 | 1026.4 |
| 20260506023007 | 20 | 28 | 8.0 | 20.9 | 0.00 | 0.00 | 0.00 | 75 | 1026.4 |
| 20260506021505 | 20 | 0 | 14.5 | 24.1 | 0.00 | 0.00 | 0.00 | 77 | 1026.2 |
| 20260506021007 | 20 | 47 | 12.9 | 20.9 | 0.00 | 0.00 | 0.00 | 76 | 1026.3 |
| 20260506020505 | 20 | 31 | 11.3 | 19.3 | 0.00 | 0.00 | 0.00 | 76 | 1026.4 |
| 20260506015507 | 21 | 39 | 6.4 | 20.9 | 0.00 | 0.00 | 0.00 | 75 | 1026.3 |
| 20260506015005 | 21 | 36 | 9.7 | 20.9 | 0.00 | 0.00 | 0.00 | 76 | 1026.4 |
| 20260506014505 | 21 | 44 | 14.5 | 22.5 | 0.00 | 0.00 | 0.00 | 75 | 1026.4 |
| 20260506014007 | 20 | 42 | 9.7 | 27.4 | 0.00 | 0.00 | 0.00 | 76 | 1026.3 |
| 20260506013006 | 20 | 27 | 9.7 | 24.1 | 0.00 | 0.00 | 0.00 | 77 | 1026.4 |
| 20260506011505 | 19 | 43 | 9.7 | 19.3 | 0.00 | 0.00 | 0.00 | 81 | 1026.6 |
| 20260506010005 | 19 | 12 | 11.3 | 16.1 | 0.00 | 0.00 | 0.00 | 80 | 1026.7 |
| 20260506005506 | 20 | 41 | 9.7 | 20.9 | 0.00 | 0.00 | 0.00 | 79 | 1026.7 |
| 20260506004505 | 19 | 21 | 12.9 | 22.5 | 0.00 | 0.00 | 0.00 | 80 | 1026.7 |
| 20260506003006 | 20 | 31 | 11.3 | 22.5 | 0.00 | 0.00 | 0.00 | 79 | 1027.0 |
| 20260506002005 | 20 | 43 | 9.7 | 19.3 | 0.00 | 0.00 | 0.00 | 77 | 1027.1 |
| 20260506001505 | 20 | 10 | 9.7 | 20.9 | 0.00 | 0.00 | 0.00 | 78 | 1027.1 |
| 20260506000005 | 20 | 35 | 9.7 | 20.9 | 0.00 | 0.00 | 0.00 | 79 | 1027.3 |
| 20260505235005 | 19 | 31 | 11.3 | 19.3 | 0.00 | 0.00 | 0.00 | 80 | 1027.5 |
| 20260505234506 | 19 | 45 | 9.7 | 20.9 | 0.00 | 0.00 | 0.00 | 81 | 1027.6 |
| 20260505234005 | 19 | 77 | 9.7 | 25.7 | 0.00 | 0.00 | 0.00 | 80 | 1027.6 |
| 20260505233505 | 19 | 113 | 8.0 | 14.5 | 0.00 | 0.00 | 0.00 | 80 | 1027.6 |
| 20260505233006 | 19 | 71 | 6.4 | 14.5 | 0.00 | 0.00 | 0.00 | 82 | 1027.8 |
| 20260505230005 | 18 | 20 | 4.8 | 14.5 | 0.00 | 0.00 | 0.00 | 87 | 1027.9 |
| 20260505225005 | 18 | 51 | 4.8 | 14.5 | 0.00 | 0.00 | 0.00 | 88 | 1028.0 |
| 20260505224507 | 17 | 50 | 8.0 | 16.1 | 0.00 | 0.00 | 0.00 | 88 | 1028.0 |
| 20260505224005 | 17 | 36 | 6.4 | 20.9 | 0.00 | 0.00 | 0.00 | 88 | 1028.0 |
| 20260505223505 | 17 | 43 | 4.8 | 20.9 | 0.00 | 0.00 | 0.00 | 89 | 1028.1 |
| 20260505223006 | 17 | 58 | 3.2 | 9.7 | 0.00 | 0.00 | 0.00 | 89 | 1028.1 |
| 20260505222506 | 17 | 68 | 4.8 | 16.1 | 0.00 | 0.00 | 0.00 | 89 | 1028.1 |
| 20260505220505 | 17 | 32 | 4.8 | 9.7 | 0.00 | 0.00 | 0.00 | 92 | 1028.3 |
| 20260505215505 | 17 | 71 | 4.8 | 11.3 | 0.00 | 0.00 | 0.00 | 93 | 1028.3 |
| 20260505215007 | 17 | 79 | 4.8 | 12.9 | 0.00 | 0.00 | 0.00 | 95 | 1028.3 |
| 20260505214505 | 17 | 67 | 6.4 | 11.3 | 0.00 | 0.00 | 0.00 | 96 | 1028.4 |
| 20260505212504 | 16 | 82 | 1.6 | 4.8 | 0.00 | 0.00 | 0.00 | 99 | 1028.3 |
| 20260505211005 | 16 | 58 | 1.6 | 4.8 | 0.00 | 0.00 | 0.00 | 99 | 1028.5 |
| 20260505210505 | 15 | 52 | 3.2 | 4.8 | 0.00 | 0.00 | 0.00 | 99 | 1028.5 |
| 20260505205005 | 15 | 80 | 3.2 | 8.0 | 0.00 | 0.00 | 0.00 | 99 | 1028.4 |
| 20260505204505 | 15 | 81 | 3.2 | 8.0 | 0.00 | 0.00 | 0.00 | 99 | 1028.5 |
| 20260505203006 | 14 | 86 | 3.2 | 8.0 | 0.00 | 0.00 | 0.00 | 99 | 1028.4 |
| 20260505201505 | 13 | 109 | 3.2 | 8.0 | 0.00 | 0.00 | 0.00 | 99 | 1028.3 |
| 20260505201005 | 13 | 101 | 3.2 | 8.0 | 0.00 | 0.00 | 0.00 | 99 | 1028.2 |
| 20260505200005 | 13 | 92 | 3.2 | 8.0 | 0.00 | 0.00 | 0.00 | 98 | 1028.0 |
| 20260505194504 | 13 | 80 | 4.8 | 9.7 | 0.00 | 0.00 | 0.00 | 98 | 1027.8 |
| 20260505194005 | 13 | 97 | 4.8 | 8.0 | 0.00 | 0.00 | 0.00 | 98 | 1027.8 |
| 20260505193504 | 13 | 87 | 4.8 | 8.0 | 0.00 | 0.00 | 0.00 | 98 | 1028.0 |
| 20260505192504 | 13 | 93 | 4.8 | 8.0 | 0.00 | 0.00 | 0.00 | 98 | 1027.8 |
| 20260505190505 | 13 | 85 | 3.2 | 8.0 | 0.00 | 0.00 | 0.00 | 97 | 1027.8 |
| 20260505190005 | 13 | 79 | 4.8 | 8.0 | 0.00 | 0.00 | 0.00 | 97 | 1027.6 |
| 20260505184504 | 13 | 116 | 4.8 | 4.8 | 0.00 | 0.00 | 0.00 | 96 | 1027.8 |
| 20260505183005 | 13 | 95 | 3.2 | 8.0 | 0.00 | 0.00 | 0.00 | 96 | 1027.9 |
| 20260505182504 | 13 | 76 | 4.8 | 8.0 | 0.00 | 0.00 | 0.00 | 96 | 1027.8 |
| 20260505182004 | 13 | 77 | 4.8 | 8.0 | 0.00 | 0.00 | 0.00 | 96 | 1027.9 |
| 20260505181507 | 13 | 77 | 4.8 | 11.3 | 0.00 | 0.00 | 0.00 | 96 | 1027.7 |
| 20260505174005 | 13 | 70 | 4.8 | 8.0 | 0.00 | 0.00 | 0.00 | 95 | 1027.5 |
| 20260505172504 | 13 | 93 | 3.2 | 8.0 | 0.00 | 0.00 | 0.00 | 95 | 1027.7 |
| 20260505172006 | 13 | 99 | 4.8 | 8.0 | 0.00 | 0.00 | 0.00 | 94 | 1027.7 |
| 20260505171505 | 13 | 94 | 4.8 | 8.0 | 0.00 | 0.00 | 0.00 | 95 | 1027.7 |
| 20260505170007 | 13 | 102 | 4.8 | 9.7 | 0.00 | 0.00 | 0.00 | 94 | 1027.7 |
| 20260505165506 | 13 | 108 | 4.8 | 9.7 | 0.00 | 0.00 | 0.00 | 94 | 1027.7 |
| 20260505164508 | 13 | 88 | 9.7 | 11.3 | 0.00 | 0.00 | 0.00 | 95 | 1027.9 |
| 20260505163009 | 13 | 96 | 8.0 | 9.7 | 0.00 | 0.00 | 0.00 | 94 | 1027.8 |
| 20260505162506 | 13 | 108 | 8.0 | 9.7 | 0.00 | 0.00 | 0.00 | 93 | 1027.8 |
| 20260505161008 | 13 | 95 | 4.8 | 11.3 | 0.00 | 0.00 | 0.00 | 93 | 1027.9 |
| 20260505150506 | 14 | 88 | 9.7 | 9.7 | 0.00 | 0.00 | 0.00 | 90 | 1028.1 |
| 20260505125008 | 13 | 334 | 3.2 | 3.2 | 0.00 | 0.00 | 0.00 | 93 | 1029.4 |
| 20260505124508 | 13 | 333 | 3.2 | 3.2 | 0.00 | 0.00 | 0.00 | 93 | 1029.5 |
| 20260505122506 | 13 | 319 | 3.2 | 4.8 | 0.00 | 0.00 | 0.00 | 93 | 1029.6 |
| 20260505122007 | 13 | 326 | 3.2 | 4.8 | 0.00 | 0.00 | 0.00 | 94 | 1029.6 |
| 20260505121006 | 13 | 311 | 1.6 | 3.2 | 0.00 | 0.00 | 0.00 | 94 | 1029.4 |
| 20260505120506 | 13 | 351 | 0.0 | 3.2 | 0.00 | 0.00 | 0.00 | 94 | 1029.5 |
| 20260505115006 | 13 | 123 | 3.2 | 3.2 | 0.00 | 0.00 | 0.00 | 94 | 1029.5 |
| 20260505113006 | 13 | 85 | 1.6 | 1.6 | 0.00 | 0.00 | 0.00 | 94 | 1029.5 |
| 20260505111507 | 13 | 67 | 4.8 | 9.7 | 0.00 | 0.00 | 0.00 | 94 | 1029.6 |
| 20260505111007 | 13 | 86 | 8.0 | 9.7 | 0.00 | 0.00 | 0.00 | 94 | 1029.6 |
| 20260505102008 | 13 | 88 | 8.0 | 8.0 | 0.00 | 0.00 | 0.00 | 93 | 1030.0 |
| 20260505101006 | 13 | 92 | 8.0 | 9.7 | 0.00 | 0.00 | 0.00 | 94 | 1029.9 |
| 20260505100507 | 13 | 86 | 6.4 | 9.7 | 0.00 | 0.00 | 0.00 | 94 | 1029.9 |
| 20260505100007 | 13 | 81 | 8.0 | 9.7 | 0.00 | 0.00 | 0.00 | 94 | 1029.9 |
| 20260505095506 | 13 | 79 | 8.0 | 9.7 | 0.00 | 0.00 | 0.00 | 93 | 1030.0 |
| 20260505094008 | 13 | 85 | 6.4 | 8.0 | 0.00 | 0.00 | 0.00 | 93 | 1029.9 |
| 20260505092507 | 13 | 90 | 4.8 | 8.0 | 0.00 | 0.00 | 0.00 | 93 | 1029.8 |
| 20260505091506 | 14 | 95 | 4.8 | 8.0 | 0.00 | 0.00 | 0.00 | 93 | 1029.8 |
| 20260505091006 | 14 | 83 | 8.0 | 9.7 | 0.00 | 0.00 | 0.00 | 93 | 1030.0 |
| 20260505090006 | 14 | 78 | 8.0 | 9.7 | 0.00 | 0.00 | 0.00 | 93 | 1029.7 |
| 20260505085006 | 14 | 81 | 8.0 | 9.7 | 0.00 | 0.00 | 0.00 | 93 | 1029.9 |
| 20260505084006 | 14 | 83 | 8.0 | 8.0 | 0.00 | 0.00 | 0.00 | 93 | 1029.7 |
| 20260505083006 | 14 | 84 | 8.0 | 8.0 | 0.00 | 0.00 | 0.00 | 92 | 1029.5 |
| 20260505082007 | 14 | 79 | 4.8 | 9.7 | 0.00 | 0.00 | 0.00 | 92 | 1029.8 |
| 20260505081506 | 14 | 81 | 8.0 | 9.7 | 0.00 | 0.00 | 0.00 | 92 | 1029.6 |
| 20260505081007 | 14 | 78 | 6.4 | 8.0 | 0.00 | 0.00 | 0.00 | 91 | 1029.7 |
| 20260505080006 | 14 | 84 | 3.2 | 8.0 | 0.00 | 0.00 | 0.00 | 90 | 1029.8 |
| 20260505075506 | 14 | 83 | 3.2 | 8.0 | 0.00 | 0.00 | 0.00 | 89 | 1029.8 |
| 20260505075008 | 14 | 85 | 3.2 | 4.8 | 0.00 | 0.00 | 0.00 | 89 | 1029.7 |
| 20260505074006 | 15 | 80 | 4.8 | 8.0 | 0.00 | 0.00 | 0.00 | 88 | 1029.7 |
| 20260505073007 | 15 | 83 | 6.4 | 12.9 | 0.00 | 0.00 | 0.00 | 88 | 1029.7 |
| 20260505072506 | 15 | 87 | 8.0 | 11.3 | 0.00 | 0.00 | 0.00 | 87 | 1029.6 |
| 20260505071507 | 15 | 75 | 6.4 | 11.3 | 0.00 | 0.00 | 0.00 | 86 | 1029.6 |
| 20260505070506 | 15 | 80 | 8.0 | 14.5 | 0.00 | 0.00 | 0.00 | 86 | 1029.4 |
| 20260505070007 | 15 | 82 | 8.0 | 14.5 | 0.00 | 0.00 | 0.00 | 86 | 1029.5 |
| 20260505065006 | 16 | 83 | 8.0 | 12.9 | 0.00 | 0.00 | 0.00 | 86 | 1029.4 |
| 20260505063506 | 16 | 76 | 8.0 | 9.7 | 0.00 | 0.00 | 0.00 | 84 | 1029.4 |
| 20260505063006 | 16 | 69 | 4.8 | 9.7 | 0.00 | 0.00 | 0.00 | 84 | 1029.6 |
| 20260505062505 | 16 | 81 | 6.4 | 9.7 | 0.00 | 0.00 | 0.00 | 85 | 1029.5 |
| 20260505062007 | 16 | 76 | 8.0 | 14.5 | 0.00 | 0.00 | 0.00 | 85 | 1029.4 |
| 20260505061006 | 16 | 52 | 3.2 | 8.0 | 0.00 | 0.00 | 0.00 | 84 | 1029.5 |
| 20260505060507 | 16 | 36 | 3.2 | 11.3 | 0.00 | 0.00 | 0.00 | 83 | 1029.5 |
| 20260505060005 | 16 | 29 | 4.8 | 11.3 | 0.00 | 0.00 | 0.00 | 83 | 1029.5 |
| 20260505055507 | 16 | 11 | 3.2 | 4.8 | 0.00 | 0.00 | 0.00 | 83 | 1029.4 |
| 20260505053505 | 16 | 49 | 4.8 | 9.7 | 0.00 | 0.00 | 0.00 | 82 | 1029.3 |
| 20260505053008 | 16 | 36 | 3.2 | 8.0 | 0.00 | 0.00 | 0.00 | 81 | 1029.3 |
| 20260505052006 | 16 | 50 | 4.8 | 9.7 | 0.00 | 0.00 | 0.00 | 81 | 1029.3 |
| 20260505051506 | 17 | 27 | 4.8 | 11.3 | 0.00 | 0.00 | 0.00 | 81 | 1029.4 |
| 20260505041005 | 17 | 79 | 6.4 | 11.3 | 0.00 | 0.00 | 0.00 | 79 | 1029.7 |
| 20260505040005 | 18 | 63 | 6.4 | 16.1 | 0.00 | 0.00 | 0.00 | 78 | 1029.6 |
| 20260505035506 | 18 | 52 | 4.8 | 9.7 | 0.00 | 0.00 | 0.00 | 79 | 1029.5 |
| 20260505035006 | 18 | 74 | 6.4 | 12.9 | 0.00 | 0.00 | 0.00 | 78 | 1029.6 |